Terminal Aerodrome Forecast
Issued by NWS

Home | Current Version | Previous Version | Text Only | Print | Product List | Glossary On
Versions: 1 2 3 4 5 6 7 8 9 10 11 12 13 14 15 16 17 18 19 20 21 22 23 24 25 26 27
000
FTUS41 KOKX 310500
TAFTEB
TAF
KTEB 310520Z 3106/0106 VRB03KT P6SM SCT250
     FM311300 22007KT P6SM SCT050 SCT250
     FM311900 21010G18KT P6SM SCT050 BKN250
     FM010000 20007KT P6SM BKN250=

USA.gov is the U.S. government's official web portal to all federal, state and local government web resources and services.